Home   Weather   Portsmouth   Past weeks

Flag for USA Past Weather in Portsmouth, Virginia, USA — Yesterday and Last 2 Weeks

Now
71 °F

Fog.


Feels Like: 65 °F
Forecast: 70 / 82 °F
Wind: No wind

Location: Norfolk Naval Air Station

Current Time: Sep 30, 2016 at 6:12:03 AM

Latest Report: Sep 30, 2016 at 4:59 AM


Visibility: 3 mi

Pressure: 30.04 "Hg

Humidity: 96%

Dew Point: 70 °F

Location of PortsmouthLocation

Past Weather in Portsmouth — Graph

°F

Portsmouth Temperature Yesterday

Maximum temperature yesterday: 78 °F (at 10:59 AM)
Minimum temperature yesterday: 72 °F (at 1:59 AM)
Average temperature yesterday: 74 °F

High & Low Weather Summary for the Past Weeks

 TemperatureHumidityPressure
High88 °F (Sep 18, 3:59 PM)97% (Sep 18, 3:59 AM)30.26 "Hg (Sep 18, 3:59 AM)
Low60 °F (Sep 26, 2:59 AM)47% (Sep 26, 12:59 PM)29.90 "Hg (Sep 27, 5:59 PM)
Average74 °F82%30.07 "Hg
* Reported Sep 15 4:59 AM — Sep 30 4:59 AM, Portsmouth, Weather by CustomWeather, © 2016

Note: Actual official high and low records may vary slightly from our data, if they occured in-between our weather recording intervals... More about our weather records

Advertising

Portsmouth Weather History for the Previous 24 Hours

Scroll right to see more
 ConditionsComfort  
Time TempWeatherWind HumidityBarometerVisibility
4:59 AM
Fri, Sep 30
71 °FFog.No wind96%30.04 "Hg3 mi
3:59 AM74 °FPassing clouds.No wind94%30.03 "Hg7 mi
2:59 AM73 °FOvercast.No wind97%30.03 "Hg7 mi
1:59 AM73 °FFog.No wind94%30.03 "Hg5 mi
1:01 AM72 °FFog.No wind97%30.03 "Hg5 mi
11:59 PM
Thu, Sep 29
73 °FFog.No wind94%30.06 "Hg6 mi
10:59 PM75 °FPartly cloudy.6 mph90%30.06 "Hg8 mi
9:59 PM76 °FMostly cloudy.5 mph88%30.07 "Hg8 mi
8:59 PM76 °FMostly cloudy.9 mph88%30.06 "Hg9 mi
7:59 PM75 °FMostly cloudy.9 mph88%30.06 "Hg9 mi
6:59 PM74 °FMostly cloudy.12 mph91%30.05 "Hg8 mi
5:59 PM74 °FMostly cloudy.14 mph88%30.05 "Hg7 mi
4:59 PM75 °FOvercast.16 mph88%30.03 "Hg7 mi
3:59 PM75 °FOvercast.15 mph88%30.04 "Hg8 mi
2:59 PM75 °FLight rain. Cloudy.13 mph88%30.09 "Hg9 mi
1:59 PM75 °FPartly sunny.12 mph82%30.07 "Hg9 mi
12:59 PM76 °FBroken clouds.16 mph85%30.09 "Hg9 mi
11:59 AM77 °FPartly sunny.13 mph85%30.08 "Hg10 mi
10:59 AM78 °FBroken clouds.10 mph84%30.08 "Hg9 mi
9:59 AM76 °FLight rain. Fog.10 mph91%30.09 "Hg6 mi
8:59 AM74 °FScattered clouds.No wind88%30.07 "Hg10 mi
7:59 AM73 °FThunderstorms. Fog.7 mph90%30.05 "Hg6 mi
6:59 AM73 °FPartly sunny.No wind94%30.04 "Hg9 mi
Weather by CustomWeather, © 2016

See weather overviewHow to use our weather pages